Location: Bothwell
(42.3833°S, 147.0000°E)
Time: 04:39:02
(UTC+10:00)

DUCHIFAT 1 - Visible Passes

Search period start: 18 July 2024 00:00
Search period end: 28 July 2024 00:00
Orbit: 533 x 550 km, 98.1° (Epoch: 16 July)

Date Brightness Start Highest point End Pass type
(mag) Time Alt. Az. Time Alt. Az. Time Alt. Az.
18 Jul ? 18:13:08 10° SSW 18:16:02 20° WSW 18:18:53 10° WNW visible
19 Jul ? 18:06:02 10° SSW 18:09:12 23° WSW 18:12:20 10° WNW visible
20 Jul ? 17:58:56 10° S 18:02:20 28° WSW 18:05:40 10° NW visible
21 Jul ? 17:51:50 10° S 17:55:24 33° WSW 17:58:55 10° NW visible
22 Jul ? 17:44:43 10° S 17:48:26 40° WSW 17:52:05 10° NW visible
23 Jul ? 17:37:36 10° S 17:41:25 48° WSW 17:45:11 10° NNW visible
24 Jul ? 17:30:28 10° S 17:34:22 60° WSW 17:38:12 10° NNW visible
